Year,Month,Day,Hour,Minute,Value (Times are PST for temperature in C)
2015,06,22,00,00,18.00
2015,06,22,00,01,17.90
2015,06,22,00,02,17.90
2015,06,22,00,03,17.80
2015,06,22,00,04,17.80
2015,06,22,00,05,17.70
2015,06,22,00,06,17.60
2015,06,22,00,07,17.60
2015,06,22,00,08,17.50
2015,06,22,00,09,17.40
2015,06,22,00,10,17.40
2015,06,22,00,11,17.40
2015,06,22,00,12,17.30
2015,06,22,00,13,17.30
2015,06,22,00,14,17.30
2015,06,22,00,15,17.30
2015,06,22,00,16,17.30
2015,06,22,00,17,17.20
2015,06,22,00,18,17.20
2015,06,22,00,19,17.20
2015,06,22,00,20,17.10
2015,06,22,00,21,17.10
2015,06,22,00,22,17.10
2015,06,22,00,23,17.10
2015,06,22,00,24,17.10
2015,06,22,00,25,17.00
2015,06,22,00,26,17.00
2015,06,22,00,27,17.00
2015,06,22,00,28,17.00
2015,06,22,00,29,16.90
2015,06,22,00,30,16.90
2015,06,22,00,31,16.90
2015,06,22,00,32,16.90
2015,06,22,00,33,16.90
2015,06,22,00,34,16.90
2015,06,22,00,35,16.80
2015,06,22,00,36,16.80
2015,06,22,00,37,16.80
2015,06,22,00,38,16.70
2015,06,22,00,39,16.70
2015,06,22,00,40,16.70
2015,06,22,00,41,16.70
2015,06,22,00,42,16.70
2015,06,22,00,43,16.70
2015,06,22,00,44,16.70
2015,06,22,00,45,16.70
2015,06,22,00,46,16.70
2015,06,22,00,47,16.70
2015,06,22,00,48,16.60
2015,06,22,00,49,16.60
2015,06,22,00,50,16.60
2015,06,22,00,51,16.50
2015,06,22,00,52,16.40
2015,06,22,00,53,16.40
2015,06,22,00,54,16.40
2015,06,22,00,55,16.40
2015,06,22,00,56,16.40
2015,06,22,00,57,16.40
2015,06,22,00,58,16.40
2015,06,22,00,59,16.40
2015,06,22,01,00,16.40
2015,06,22,01,01,16.40
2015,06,22,01,02,16.40
2015,06,22,01,03,16.40
2015,06,22,01,04,16.40
2015,06,22,01,05,16.30
2015,06,22,01,06,16.30
2015,06,22,01,07,16.30
2015,06,22,01,08,16.30
2015,06,22,01,09,16.20
2015,06,22,01,10,16.20
2015,06,22,01,11,16.20
2015,06,22,01,12,16.20
2015,06,22,01,13,16.20
2015,06,22,01,14,16.20
2015,06,22,01,15,16.20
2015,06,22,01,16,16.20
2015,06,22,01,17,16.20
2015,06,22,01,18,16.20
2015,06,22,01,19,16.20
2015,06,22,01,20,16.20
2015,06,22,01,21,16.20
2015,06,22,01,22,16.20
2015,06,22,01,23,16.20
2015,06,22,01,24,16.20
2015,06,22,01,25,16.20
2015,06,22,01,26,16.20
2015,06,22,01,27,16.20
2015,06,22,01,28,16.10
2015,06,22,01,29,16.10
2015,06,22,01,30,16.10
2015,06,22,01,31,16.10
2015,06,22,01,32,16.10
2015,06,22,01,33,16.10
2015,06,22,01,34,16.10
2015,06,22,01,35,16.10
2015,06,22,01,36,16.10
2015,06,22,01,37,16.00
2015,06,22,01,38,15.90
2015,06,22,01,39,15.90
2015,06,22,01,40,15.90
2015,06,22,01,41,15.90
2015,06,22,01,42,15.90
2015,06,22,01,43,15.90
2015,06,22,01,44,15.80
2015,06,22,01,45,15.80
2015,06,22,01,46,15.80
2015,06,22,01,47,15.80
2015,06,22,01,48,15.70
2015,06,22,01,49,15.70
2015,06,22,01,50,15.70
2015,06,22,01,51,15.70
2015,06,22,01,52,15.70
2015,06,22,01,53,15.60
2015,06,22,01,54,15.60
2015,06,22,01,55,15.60
2015,06,22,01,56,15.60
2015,06,22,01,57,15.60
2015,06,22,01,58,15.60
2015,06,22,01,59,15.60
2015,06,22,02,00,15.60
2015,06,22,02,01,15.60
2015,06,22,02,02,15.60
2015,06,22,02,03,15.60
2015,06,22,02,04,15.60
2015,06,22,02,05,15.50
2015,06,22,02,06,15.50
2015,06,22,02,07,15.50
2015,06,22,02,08,15.50
2015,06,22,02,09,15.50
2015,06,22,02,10,15.50
2015,06,22,02,11,15.50
2015,06,22,02,12,15.50
2015,06,22,02,13,15.50
2015,06,22,02,14,15.50
2015,06,22,02,15,15.40
2015,06,22,02,16,15.40
2015,06,22,02,17,15.40
2015,06,22,02,18,15.40
2015,06,22,02,19,15.40
2015,06,22,02,20,15.40
2015,06,22,02,21,15.40
2015,06,22,02,22,15.40
2015,06,22,02,23,15.40
2015,06,22,02,24,15.40
2015,06,22,02,25,15.40
2015,06,22,02,26,15.40
2015,06,22,02,27,15.40
2015,06,22,02,28,15.40
2015,06,22,02,29,15.40
2015,06,22,02,30,15.40
2015,06,22,02,31,15.40
2015,06,22,02,32,15.40
2015,06,22,02,33,15.40
2015,06,22,02,34,15.50
2015,06,22,02,35,15.50
2015,06,22,02,36,15.50
2015,06,22,02,37,15.50
2015,06,22,02,38,15.50
2015,06,22,02,39,15.50
2015,06,22,02,40,15.50
2015,06,22,02,41,15.50
2015,06,22,02,42,15.50
2015,06,22,02,43,15.50
2015,06,22,02,44,15.50
2015,06,22,02,45,15.60
2015,06,22,02,46,15.60
2015,06,22,02,47,15.60
2015,06,22,02,48,15.60
2015,06,22,02,49,15.60
2015,06,22,02,50,15.60
2015,06,22,02,51,15.60
2015,06,22,02,52,15.60
2015,06,22,02,53,15.60
2015,06,22,02,54,15.50
2015,06,22,02,55,15.50
2015,06,22,02,56,15.50
2015,06,22,02,57,15.50
2015,06,22,02,58,15.50
2015,06,22,02,59,15.50
2015,06,22,03,00,15.50
2015,06,22,03,01,15.40
2015,06,22,03,02,15.40
2015,06,22,03,03,15.30
2015,06,22,03,04,15.30
2015,06,22,03,05,15.30
2015,06,22,03,06,15.30
2015,06,22,03,07,15.30
2015,06,22,03,08,15.30
2015,06,22,03,09,15.30
2015,06,22,03,10,15.30
2015,06,22,03,11,15.30
2015,06,22,03,12,15.30
2015,06,22,03,13,15.30
2015,06,22,03,14,15.20
2015,06,22,03,15,15.20
2015,06,22,03,16,15.20
2015,06,22,03,17,15.20
2015,06,22,03,18,15.20
2015,06,22,03,19,15.20
2015,06,22,03,20,15.20
2015,06,22,03,21,15.10
2015,06,22,03,22,15.10
2015,06,22,03,23,15.10
2015,06,22,03,24,15.00
2015,06,22,03,25,15.00
2015,06,22,03,26,15.00
2015,06,22,03,27,15.00
2015,06,22,03,28,14.90
2015,06,22,03,29,14.80
2015,06,22,03,30,14.80
2015,06,22,03,31,14.80
2015,06,22,03,32,14.80
2015,06,22,03,33,14.80
2015,06,22,03,34,14.80
2015,06,22,03,35,14.80
2015,06,22,03,36,14.80
2015,06,22,03,37,14.70
2015,06,22,03,38,14.60
2015,06,22,03,39,14.60
2015,06,22,03,40,14.60
2015,06,22,03,41,14.60
2015,06,22,03,42,14.60
2015,06,22,03,43,14.50
2015,06,22,03,44,14.50
2015,06,22,03,45,14.50
2015,06,22,03,46,14.40
2015,06,22,03,47,14.40
2015,06,22,03,48,14.40
2015,06,22,03,49,14.30
2015,06,22,03,50,14.30
2015,06,22,03,51,14.20
2015,06,22,03,52,14.20
2015,06,22,03,53,14.20
2015,06,22,03,54,14.20
2015,06,22,03,55,14.20
2015,06,22,03,56,14.20
2015,06,22,03,57,14.20
2015,06,22,03,58,14.20
2015,06,22,03,59,14.20
2015,06,22,04,00,14.20
2015,06,22,04,01,14.20
2015,06,22,04,02,14.20
2015,06,22,04,03,14.10
2015,06,22,04,04,14.10
2015,06,22,04,05,14.10
2015,06,22,04,06,14.10
2015,06,22,04,07,14.10
2015,06,22,04,08,14.10
2015,06,22,04,09,14.10
2015,06,22,04,10,14.00
2015,06,22,04,11,14.00
2015,06,22,04,12,14.00
2015,06,22,04,13,14.00
2015,06,22,04,14,14.00
2015,06,22,04,15,14.00
2015,06,22,04,16,14.00
2015,06,22,04,17,14.00
2015,06,22,04,18,14.00
2015,06,22,04,19,14.00
2015,06,22,04,20,14.00
2015,06,22,04,21,14.00
2015,06,22,04,22,14.00
2015,06,22,04,23,14.00
2015,06,22,04,24,14.00
2015,06,22,04,25,14.10
2015,06,22,04,26,14.10
2015,06,22,04,27,14.10
2015,06,22,04,28,14.10
2015,06,22,04,29,14.10
2015,06,22,04,30,14.20
2015,06,22,04,31,14.20
2015,06,22,04,32,14.20
2015,06,22,04,33,14.20
2015,06,22,04,34,14.20
2015,06,22,04,35,14.20
2015,06,22,04,36,14.20
2015,06,22,04,37,14.20
2015,06,22,04,38,14.20
2015,06,22,04,39,14.20
2015,06,22,04,40,14.20
2015,06,22,04,41,14.20
2015,06,22,04,42,14.20
2015,06,22,04,43,14.20
2015,06,22,04,44,14.20
2015,06,22,04,45,14.20
2015,06,22,04,46,14.20
2015,06,22,04,47,14.10
2015,06,22,04,48,14.10
2015,06,22,04,49,14.10
2015,06,22,04,50,14.00
2015,06,22,04,51,14.00
2015,06,22,04,52,14.00
2015,06,22,04,53,14.00
2015,06,22,04,54,14.00
2015,06,22,04,55,14.00
2015,06,22,04,56,13.90
2015,06,22,04,57,13.90
2015,06,22,04,58,13.90
2015,06,22,04,59,13.90
2015,06,22,05,00,13.80
2015,06,22,05,01,13.80
2015,06,22,05,02,13.80
2015,06,22,05,03,13.80
2015,06,22,05,04,13.80
2015,06,22,05,05,13.80
2015,06,22,05,06,13.80
2015,06,22,05,07,13.80
2015,06,22,05,08,13.80
2015,06,22,05,09,13.80
2015,06,22,05,10,13.80
2015,06,22,05,11,13.80
2015,06,22,05,12,13.80
2015,06,22,05,13,13.80
2015,06,22,05,14,13.80
2015,06,22,05,15,13.80
2015,06,22,05,16,13.80
2015,06,22,05,17,13.80
2015,06,22,05,18,13.80
2015,06,22,05,19,13.80
2015,06,22,05,20,13.80
2015,06,22,05,21,13.90
2015,06,22,05,22,13.90
2015,06,22,05,23,13.90
2015,06,22,05,24,13.90
2015,06,22,05,25,13.90
2015,06,22,05,26,13.90
2015,06,22,05,27,13.90
2015,06,22,05,28,13.90
2015,06,22,05,29,13.90
2015,06,22,05,30,13.90
2015,06,22,05,31,13.90
2015,06,22,05,32,13.90
2015,06,22,05,33,13.90
2015,06,22,05,34,13.90
2015,06,22,05,35,13.90
2015,06,22,05,36,13.90
2015,06,22,05,37,13.90
2015,06,22,05,38,13.90
2015,06,22,05,39,14.00
2015,06,22,05,40,14.00
2015,06,22,05,41,14.10
2015,06,22,05,42,14.20
2015,06,22,05,43,14.20
2015,06,22,05,44,14.30
2015,06,22,05,45,14.30
2015,06,22,05,46,14.40
2015,06,22,05,47,14.40
2015,06,22,05,48,14.50
2015,06,22,05,49,14.60
2015,06,22,05,50,14.60
2015,06,22,05,51,14.70
2015,06,22,05,52,14.70
2015,06,22,05,53,14.70
2015,06,22,05,54,14.70
2015,06,22,05,55,14.70
2015,06,22,05,56,14.80
2015,06,22,05,57,14.80
2015,06,22,05,58,14.80
2015,06,22,05,59,14.80
2015,06,22,06,00,14.80
2015,06,22,06,01,14.80
2015,06,22,06,02,14.80
2015,06,22,06,03,14.80
2015,06,22,06,04,14.80
2015,06,22,06,05,14.80
2015,06,22,06,06,14.80
2015,06,22,06,07,14.80
2015,06,22,06,08,14.80
2015,06,22,06,09,14.80
2015,06,22,06,10,14.80
2015,06,22,06,11,14.80
2015,06,22,06,12,14.80
2015,06,22,06,13,14.90
2015,06,22,06,14,14.90
2015,06,22,06,15,14.90
2015,06,22,06,16,14.90
2015,06,22,06,17,14.90
2015,06,22,06,18,14.90
2015,06,22,06,19,14.90
2015,06,22,06,20,14.90
2015,06,22,06,21,14.90
2015,06,22,06,22,14.90
2015,06,22,06,23,15.00
2015,06,22,06,24,15.00
2015,06,22,06,25,15.00
2015,06,22,06,26,15.00
2015,06,22,06,27,15.00
2015,06,22,06,28,15.00
2015,06,22,06,29,14.90
2015,06,22,06,30,14.90
2015,06,22,06,31,14.90
2015,06,22,06,32,14.80
2015,06,22,06,33,14.80
2015,06,22,06,34,14.80
2015,06,22,06,35,14.80
2015,06,22,06,36,14.80
2015,06,22,06,37,14.70
2015,06,22,06,38,14.70
2015,06,22,06,39,14.70
2015,06,22,06,40,14.70
2015,06,22,06,41,14.70
2015,06,22,06,42,14.60
2015,06,22,06,43,14.60
2015,06,22,06,44,14.60
2015,06,22,06,45,14.60
2015,06,22,06,46,14.60
2015,06,22,06,47,14.60
2015,06,22,06,48,14.50
2015,06,22,06,49,14.40
2015,06,22,06,50,14.40
2015,06,22,06,51,14.40
2015,06,22,06,52,14.50
2015,06,22,06,53,14.50
2015,06,22,06,54,14.50
2015,06,22,06,55,14.60
2015,06,22,06,56,14.60
2015,06,22,06,57,14.60
2015,06,22,06,58,14.60
2015,06,22,06,59,14.60
2015,06,22,07,00,14.70
2015,06,22,07,01,14.70
2015,06,22,07,02,14.70
2015,06,22,07,03,14.70
2015,06,22,07,04,14.80
2015,06,22,07,05,14.80
2015,06,22,07,06,14.80
2015,06,22,07,07,14.70
2015,06,22,07,08,14.70
2015,06,22,07,09,14.70
2015,06,22,07,10,14.70
2015,06,22,07,11,14.70
2015,06,22,07,12,14.70
2015,06,22,07,13,14.70
2015,06,22,07,14,14.80
2015,06,22,07,15,14.80
2015,06,22,07,16,14.80
2015,06,22,07,17,14.80
2015,06,22,07,18,14.80
2015,06,22,07,19,14.80
2015,06,22,07,20,14.80
2015,06,22,07,21,14.80
2015,06,22,07,22,14.80
2015,06,22,07,23,14.90
2015,06,22,07,24,14.90
2015,06,22,07,25,14.90
2015,06,22,07,26,14.90
2015,06,22,07,27,14.90
2015,06,22,07,28,14.90
2015,06,22,07,29,14.90
2015,06,22,07,30,15.00
2015,06,22,07,31,15.00
2015,06,22,07,32,15.10
2015,06,22,07,33,15.10
2015,06,22,07,34,15.20
2015,06,22,07,35,15.20
2015,06,22,07,36,15.30
2015,06,22,07,37,15.30
2015,06,22,07,38,15.40
2015,06,22,07,39,15.50
2015,06,22,07,40,15.50
2015,06,22,07,41,15.50
2015,06,22,07,42,15.50
2015,06,22,07,43,15.60
2015,06,22,07,44,15.70
2015,06,22,07,45,15.70
2015,06,22,07,46,15.80
2015,06,22,07,47,15.90
2015,06,22,07,48,15.90
2015,06,22,07,49,15.90
2015,06,22,07,50,16.00
2015,06,22,07,51,16.10
2015,06,22,07,52,16.10
2015,06,22,07,53,16.10
2015,06,22,07,54,16.10
2015,06,22,07,55,16.10
2015,06,22,07,56,16.10
2015,06,22,07,57,16.10
2015,06,22,07,58,16.00
2015,06,22,07,59,15.90
2015,06,22,08,00,15.90
2015,06,22,08,01,15.90
2015,06,22,08,02,15.90
2015,06,22,08,03,15.80
2015,06,22,08,04,15.80
2015,06,22,08,05,15.80
2015,06,22,08,06,15.80
2015,06,22,08,07,15.80
2015,06,22,08,08,15.80
2015,06,22,08,09,15.80
2015,06,22,08,10,15.90
2015,06,22,08,11,16.00
2015,06,22,08,12,16.10
2015,06,22,08,13,16.10
2015,06,22,08,14,16.20
2015,06,22,08,15,16.20
2015,06,22,08,16,16.20
2015,06,22,08,17,16.30
2015,06,22,08,18,16.30
2015,06,22,08,19,16.30
2015,06,22,08,20,16.30
2015,06,22,08,21,16.30
2015,06,22,08,22,16.30
2015,06,22,08,23,16.30
2015,06,22,08,24,16.40
2015,06,22,08,25,16.40
2015,06,22,08,26,16.40
2015,06,22,08,27,16.40
2015,06,22,08,28,16.40
2015,06,22,08,29,16.60
2015,06,22,08,30,16.60
2015,06,22,08,31,16.70
2015,06,22,08,32,16.70
2015,06,22,08,33,16.70
2015,06,22,08,34,16.80
2015,06,22,08,35,16.80
2015,06,22,08,36,16.80
2015,06,22,08,37,16.80
2015,06,22,08,38,16.80
2015,06,22,08,39,16.80
2015,06,22,08,40,16.80
2015,06,22,08,41,16.90
2015,06,22,08,42,16.90
2015,06,22,08,43,16.90
2015,06,22,08,44,16.90
2015,06,22,08,45,17.00
2015,06,22,08,46,17.00
2015,06,22,08,47,17.00
2015,06,22,08,48,17.10
2015,06,22,08,49,17.10
2015,06,22,08,50,17.10
2015,06,22,08,51,17.20
2015,06,22,08,52,17.30
2015,06,22,08,53,17.30
2015,06,22,08,54,17.30
2015,06,22,08,55,17.30
2015,06,22,08,56,17.30
2015,06,22,08,57,17.30
2015,06,22,08,58,17.30
2015,06,22,08,59,17.30
2015,06,22,09,00,17.30
2015,06,22,09,01,17.30
2015,06,22,09,02,17.30
2015,06,22,09,03,17.30
2015,06,22,09,04,17.30
2015,06,22,09,05,17.40
2015,06,22,09,06,17.50
2015,06,22,09,07,17.50
2015,06,22,09,08,17.60
2015,06,22,09,09,17.60
2015,06,22,09,10,17.60
2015,06,22,09,11,17.50
2015,06,22,09,12,17.50
2015,06,22,09,13,17.50
2015,06,22,09,14,17.60
2015,06,22,09,15,17.60
2015,06,22,09,16,17.70
2015,06,22,09,17,17.70
2015,06,22,09,18,17.80
2015,06,22,09,19,17.90
2015,06,22,09,20,17.90
2015,06,22,09,21,17.90
2015,06,22,09,22,17.90
2015,06,22,09,23,17.90
2015,06,22,09,24,17.90
2015,06,22,09,25,17.90
2015,06,22,09,26,17.90
2015,06,22,09,27,17.90
2015,06,22,09,28,17.90
2015,06,22,09,29,17.90
2015,06,22,09,30,17.90
2015,06,22,09,31,17.90
2015,06,22,09,32,17.90
2015,06,22,09,33,17.90
2015,06,22,09,34,18.10
2015,06,22,09,35,18.20
2015,06,22,09,36,18.20
2015,06,22,09,37,18.20
2015,06,22,09,38,18.20
2015,06,22,09,39,18.20
2015,06,22,09,40,18.30
2015,06,22,09,41,18.30
2015,06,22,09,42,18.30
2015,06,22,09,43,18.30
2015,06,22,09,44,18.30
2015,06,22,09,45,18.30
2015,06,22,09,46,18.30
2015,06,22,09,47,18.30
2015,06,22,09,48,18.30
2015,06,22,09,49,18.30
2015,06,22,09,50,18.30
2015,06,22,09,51,18.40
2015,06,22,09,52,18.40
2015,06,22,09,53,18.50
2015,06,22,09,54,18.50
2015,06,22,09,55,18.50
2015,06,22,09,56,18.50
2015,06,22,09,57,18.40
2015,06,22,09,58,18.40
2015,06,22,09,59,18.40
2015,06,22,10,00,18.40
2015,06,22,10,01,18.50
2015,06,22,10,02,18.50
2015,06,22,10,03,18.60
2015,06,22,10,04,18.60
2015,06,22,10,05,18.60
2015,06,22,10,06,18.50
2015,06,22,10,07,18.50
2015,06,22,10,08,18.60
2015,06,22,10,09,18.50
2015,06,22,10,10,18.50
2015,06,22,10,11,18.50
2015,06,22,10,12,18.60
2015,06,22,10,13,18.70
2015,06,22,10,14,18.80
2015,06,22,10,15,18.90
2015,06,22,10,16,19.00
2015,06,22,10,17,19.10
2015,06,22,10,18,19.10
2015,06,22,10,19,19.10
2015,06,22,10,20,19.10
2015,06,22,10,21,19.10
2015,06,22,10,22,19.10
2015,06,22,10,23,19.00
2015,06,22,10,24,18.90
2015,06,22,10,25,18.90
2015,06,22,10,26,18.90
2015,06,22,10,27,18.90
2015,06,22,10,28,18.90
2015,06,22,10,29,19.10
2015,06,22,10,30,19.10
2015,06,22,10,31,19.20
2015,06,22,10,32,19.10
2015,06,22,10,33,19.10
2015,06,22,10,34,19.10
2015,06,22,10,35,19.10
2015,06,22,10,36,19.10
2015,06,22,10,37,19.10
2015,06,22,10,38,19.10
2015,06,22,10,39,19.00
2015,06,22,10,40,18.90
2015,06,22,10,41,18.90
2015,06,22,10,42,18.90
2015,06,22,10,43,18.90
2015,06,22,10,44,18.90
2015,06,22,10,45,18.90
2015,06,22,10,46,18.90
2015,06,22,10,47,18.80
2015,06,22,10,48,18.80
2015,06,22,10,49,18.80
2015,06,22,10,50,18.90
2015,06,22,10,51,18.90
2015,06,22,10,52,19.00
2015,06,22,10,53,19.10
2015,06,22,10,54,19.10
2015,06,22,10,55,19.10
2015,06,22,10,56,19.10
2015,06,22,10,57,19.10
2015,06,22,10,58,19.10
2015,06,22,10,59,19.10
2015,06,22,11,00,19.10
2015,06,22,11,01,19.10
2015,06,22,11,02,19.10
2015,06,22,11,03,19.10
2015,06,22,11,04,19.10
2015,06,22,11,05,19.20
2015,06,22,11,06,19.20
2015,06,22,11,07,19.30
2015,06,22,11,08,19.40
2015,06,22,11,09,19.50
2015,06,22,11,10,19.60
2015,06,22,11,11,19.60
2015,06,22,11,12,19.60
2015,06,22,11,13,19.60
2015,06,22,11,14,19.50
2015,06,22,11,15,19.60
2015,06,22,11,16,19.70
2015,06,22,11,17,19.70
2015,06,22,11,18,19.70
2015,06,22,11,19,19.60
2015,06,22,11,20,19.50
2015,06,22,11,21,19.50
2015,06,22,11,22,19.50
2015,06,22,11,23,19.60
2015,06,22,11,24,19.60
2015,06,22,11,25,19.60
2015,06,22,11,26,19.50
2015,06,22,11,27,19.40
2015,06,22,11,28,19.40
2015,06,22,11,29,19.50
2015,06,22,11,30,19.70
2015,06,22,11,31,19.70
2015,06,22,11,32,19.70
2015,06,22,11,33,19.60
2015,06,22,11,34,19.50
2015,06,22,11,35,19.50
2015,06,22,11,36,19.40
2015,06,22,11,37,19.40
2015,06,22,11,38,19.40
2015,06,22,11,39,19.40
2015,06,22,11,40,19.40
2015,06,22,11,41,19.40
2015,06,22,11,42,19.40
2015,06,22,11,43,19.40
2015,06,22,11,44,19.50
2015,06,22,11,45,19.70
2015,06,22,11,46,19.80
2015,06,22,11,47,19.80
2015,06,22,11,48,19.80
2015,06,22,11,49,19.90
2015,06,22,11,50,19.80
2015,06,22,11,51,19.70
2015,06,22,11,52,19.70
2015,06,22,11,53,19.70
2015,06,22,11,54,19.70
2015,06,22,11,55,19.70
2015,06,22,11,56,19.60
2015,06,22,11,57,19.60
2015,06,22,11,58,19.60
2015,06,22,11,59,19.80
2015,06,22,12,00,19.80
2015,06,22,12,01,19.80
2015,06,22,12,02,19.90
2015,06,22,12,03,20.00
2015,06,22,12,04,20.10
2015,06,22,12,05,20.00
2015,06,22,12,06,19.90
2015,06,22,12,07,19.80
2015,06,22,12,08,19.80
2015,06,22,12,09,19.70
2015,06,22,12,10,19.60
2015,06,22,12,11,19.70
2015,06,22,12,12,19.60
2015,06,22,12,13,19.60
2015,06,22,12,14,19.60
2015,06,22,12,15,19.70
2015,06,22,12,16,19.70
2015,06,22,12,17,19.70
2015,06,22,12,18,19.60
2015,06,22,12,19,19.60
2015,06,22,12,20,19.50
2015,06,22,12,21,19.50
2015,06,22,12,22,19.50
2015,06,22,12,23,19.50
2015,06,22,12,24,19.50
2015,06,22,12,25,19.50
2015,06,22,12,26,19.50
2015,06,22,12,27,19.50
2015,06,22,12,28,19.50
2015,06,22,12,29,19.50
2015,06,22,12,30,19.50
2015,06,22,12,31,19.40
2015,06,22,12,32,19.50
2015,06,22,12,33,19.50
2015,06,22,12,34,19.50
2015,06,22,12,35,19.50
2015,06,22,12,36,19.50
2015,06,22,12,37,19.50
2015,06,22,12,38,19.50
2015,06,22,12,39,19.60
2015,06,22,12,40,19.70
2015,06,22,12,41,19.80
2015,06,22,12,42,19.80
2015,06,22,12,43,19.80
2015,06,22,12,44,19.90
2015,06,22,12,45,19.90
2015,06,22,12,46,19.90
2015,06,22,12,47,19.90
2015,06,22,12,48,19.90
2015,06,22,12,49,19.90
2015,06,22,12,50,19.90
2015,06,22,12,51,19.90
2015,06,22,12,52,19.90
2015,06,22,12,53,19.90
2015,06,22,12,54,19.90
2015,06,22,14,36,20.20
2015,06,22,14,37,20.20
2015,06,22,14,38,20.20
2015,06,22,14,39,20.20
2015,06,22,14,40,20.20
2015,06,22,14,41,20.20
2015,06,22,14,42,20.20
2015,06,22,14,43,20.30
2015,06,22,14,44,20.30
2015,06,22,14,45,20.30
2015,06,22,14,46,20.30
2015,06,22,14,47,20.30
2015,06,22,14,48,20.50
2015,06,22,14,49,20.70
2015,06,22,14,50,20.80
2015,06,22,14,51,20.90
2015,06,22,14,52,21.00
2015,06,22,14,53,21.20
2015,06,22,14,54,21.20
2015,06,22,14,55,21.20
2015,06,22,14,56,21.20
2015,06,22,14,57,21.20
2015,06,22,14,58,21.30
2015,06,22,14,59,21.30
2015,06,22,15,00,21.40
2015,06,22,15,01,21.40
2015,06,22,15,02,21.30
2015,06,22,15,03,21.30
2015,06,22,15,04,21.30
2015,06,22,15,05,21.30
2015,06,22,15,06,21.30
2015,06,22,15,07,21.30
2015,06,22,15,08,21.30
2015,06,22,15,09,21.40
2015,06,22,15,10,21.60
2015,06,22,15,11,21.60
2015,06,22,15,12,21.60
2015,06,22,15,13,21.60
2015,06,22,15,14,21.60
2015,06,22,15,15,21.60
2015,06,22,15,16,21.60
2015,06,22,15,17,21.60
2015,06,22,15,18,21.60
2015,06,22,15,19,21.60
2015,06,22,15,20,21.60
2015,06,22,15,21,21.60
2015,06,22,15,22,21.60
2015,06,22,15,23,21.60
2015,06,22,15,24,21.60
2015,06,22,15,25,21.60
2015,06,22,15,26,21.60
2015,06,22,15,27,21.70
2015,06,22,15,28,21.80
2015,06,22,15,29,22.00
2015,06,22,15,30,22.00
2015,06,22,15,31,22.00
2015,06,22,15,32,22.10
2015,06,22,15,33,22.10
2015,06,22,15,34,22.30
2015,06,22,15,35,22.30
2015,06,22,15,36,22.20
2015,06,22,15,37,22.30
2015,06,22,15,38,22.40
2015,06,22,15,39,22.50
2015,06,22,15,40,22.80
2015,06,22,15,41,22.90
2015,06,22,15,42,22.90
2015,06,22,15,43,22.90
2015,06,22,15,44,22.90
2015,06,22,15,45,22.90
2015,06,22,15,46,22.80
2015,06,22,15,47,22.80
2015,06,22,15,48,22.70
2015,06,22,15,49,22.70
2015,06,22,15,50,22.70
2015,06,22,15,51,22.70
2015,06,22,15,52,22.60
2015,06,22,15,53,22.60
2015,06,22,15,54,22.60
2015,06,22,15,55,22.50
2015,06,22,15,56,22.60
2015,06,22,15,57,22.70
2015,06,22,15,58,22.70
2015,06,22,15,59,22.80
2015,06,22,16,00,22.80
2015,06,22,16,01,22.90
2015,06,22,16,02,22.90
2015,06,22,16,03,23.00
2015,06,22,16,04,23.10
2015,06,22,16,05,23.00
2015,06,22,16,06,22.90
2015,06,22,16,07,22.90
2015,06,22,16,08,22.90
2015,06,22,16,09,22.80
2015,06,22,16,10,22.70
2015,06,22,16,11,22.70
2015,06,22,16,12,22.80
2015,06,22,16,13,22.80
2015,06,22,16,14,22.90
2015,06,22,16,15,23.00
2015,06,22,16,16,23.00
2015,06,22,16,17,22.90
2015,06,22,16,18,22.80
2015,06,22,16,19,22.70
2015,06,22,16,20,22.70
2015,06,22,16,21,22.80
2015,06,22,16,22,22.80
2015,06,22,16,23,22.90
2015,06,22,16,24,22.90
2015,06,22,16,25,22.90
2015,06,22,16,26,22.90
2015,06,22,16,27,22.90
2015,06,22,16,28,22.90
2015,06,22,16,29,22.90
2015,06,22,16,30,22.90
2015,06,22,16,31,22.90
2015,06,22,16,32,22.90
2015,06,22,16,33,22.90
2015,06,22,16,34,22.90
2015,06,22,16,35,22.80
2015,06,22,16,36,22.80
2015,06,22,16,37,22.80
2015,06,22,16,38,22.70
2015,06,22,16,39,22.70
2015,06,22,16,40,22.80
2015,06,22,16,41,22.80
2015,06,22,16,42,22.80
2015,06,22,16,43,22.90
2015,06,22,16,44,22.90
2015,06,22,16,45,22.90
2015,06,22,16,46,23.00
2015,06,22,16,47,23.10
2015,06,22,16,48,23.20
2015,06,22,16,49,23.30
2015,06,22,16,50,23.30
2015,06,22,16,51,23.30
2015,06,22,16,52,23.40
2015,06,22,16,53,23.40
2015,06,22,16,54,23.40
2015,06,22,16,55,23.40
2015,06,22,16,56,23.40
2015,06,22,16,57,23.40
2015,06,22,16,58,23.30
2015,06,22,16,59,23.30
2015,06,22,17,00,23.30
2015,06,22,17,01,23.30
2015,06,22,17,02,23.30
2015,06,22,17,03,23.20
2015,06,22,17,04,23.20
2015,06,22,17,05,23.10
2015,06,22,17,06,23.00
2015,06,22,17,07,22.90
2015,06,22,17,08,22.90
2015,06,22,17,09,22.90
2015,06,22,17,10,22.90
2015,06,22,17,11,22.90
2015,06,22,17,12,22.90
2015,06,22,17,13,22.90
2015,06,22,17,14,23.10
2015,06,22,17,15,23.10
2015,06,22,17,16,23.00
2015,06,22,17,17,22.90
2015,06,22,17,18,22.80
2015,06,22,17,19,22.70
2015,06,22,17,20,22.70
2015,06,22,17,21,22.70
2015,06,22,17,22,22.60
2015,06,22,17,23,22.60
2015,06,22,17,24,22.60
2015,06,22,17,25,22.70
2015,06,22,17,26,22.70
2015,06,22,17,27,22.80
2015,06,22,17,28,22.70
2015,06,22,17,29,22.70
2015,06,22,17,30,22.70
2015,06,22,17,31,22.70
2015,06,22,17,32,22.70
2015,06,22,17,33,22.60
2015,06,22,17,34,22.60
2015,06,22,17,35,22.50
2015,06,22,17,36,22.50
2015,06,22,17,37,22.40
2015,06,22,17,38,22.40
2015,06,22,17,39,22.40
2015,06,22,17,40,22.30
2015,06,22,17,41,22.30
2015,06,22,17,42,22.40
2015,06,22,17,43,22.40
2015,06,22,17,44,22.50
2015,06,22,17,45,22.60
2015,06,22,17,46,22.60
2015,06,22,17,47,22.60
2015,06,22,17,48,22.70
2015,06,22,17,49,22.90
2015,06,22,17,50,22.90
2015,06,22,17,51,22.90
2015,06,22,17,52,22.90
2015,06,22,17,53,23.10
2015,06,22,17,54,23.10
2015,06,22,17,55,23.10
2015,06,22,17,56,23.10
2015,06,22,17,57,23.20
2015,06,22,17,58,23.20
2015,06,22,17,59,23.20
2015,06,22,18,00,23.20
2015,06,22,18,01,23.20
2015,06,22,18,02,23.20
2015,06,22,18,03,23.20
2015,06,22,18,04,23.20
2015,06,22,18,05,23.10
2015,06,22,18,06,23.10
2015,06,22,18,07,23.10
2015,06,22,18,08,23.00
2015,06,22,18,09,22.90
2015,06,22,18,10,22.90
2015,06,22,18,11,22.90
2015,06,22,18,12,22.90
2015,06,22,18,13,22.90
2015,06,22,18,14,22.80
2015,06,22,18,15,22.90
2015,06,22,18,16,22.90
2015,06,22,18,17,22.90
2015,06,22,18,18,22.90
2015,06,22,18,19,22.90
2015,06,22,18,20,22.90
2015,06,22,18,21,23.00
2015,06,22,18,22,23.10
2015,06,22,18,23,23.10
2015,06,22,18,24,23.30
2015,06,22,18,25,23.30
2015,06,22,18,26,23.30
2015,06,22,18,27,23.30
2015,06,22,18,28,23.30
2015,06,22,18,29,23.30
2015,06,22,18,30,23.30
2015,06,22,18,31,23.30
2015,06,22,18,32,23.20
2015,06,22,18,33,23.20
2015,06,22,18,34,23.10
2015,06,22,18,35,23.10
2015,06,22,18,36,23.10
2015,06,22,18,37,23.20
2015,06,22,18,38,23.20
2015,06,22,18,39,23.10
2015,06,22,18,40,23.20
2015,06,22,18,41,23.20
2015,06,22,18,42,23.30
2015,06,22,18,43,23.30
2015,06,22,18,44,23.30
2015,06,22,18,45,23.30
2015,06,22,18,46,23.30
2015,06,22,18,47,23.30
2015,06,22,18,48,23.30
2015,06,22,18,49,23.30
2015,06,22,18,50,23.30
2015,06,22,18,51,23.30
2015,06,22,18,52,23.30
2015,06,22,18,53,23.30
2015,06,22,18,54,23.30
2015,06,22,18,55,23.30
2015,06,22,18,56,23.20
2015,06,22,18,57,23.20
2015,06,22,18,58,23.20
2015,06,22,18,59,23.20
2015,06,22,19,00,23.10